Year,Month,Day,Hour,Minute,Value (Times are PST for windgust in km/hr)
2017,05,15,00,10,1.60
2017,05,15,00,11,3.20
2017,05,15,00,12,1.60
2017,05,15,00,13,3.20
2017,05,15,00,14,1.60
2017,05,15,00,15,1.60
2017,05,15,00,16,1.60
2017,05,15,00,23,1.60
2017,05,15,00,24,1.60
2017,05,15,00,25,1.60
2017,05,15,00,26,1.60
2017,05,15,00,37,1.60
2017,05,15,00,48,1.60
2017,05,15,00,49,1.60
2017,05,15,00,50,1.60
2017,05,15,00,51,3.20
2017,05,15,00,52,3.20
2017,05,15,00,53,3.20
2017,05,15,00,54,1.60
2017,05,15,00,55,3.20
2017,05,15,00,56,3.20
2017,05,15,00,57,3.20
2017,05,15,00,58,3.20
2017,05,15,00,59,1.60
2017,05,15,01,00,1.60
2017,05,15,01,09,1.60
2017,05,15,01,10,1.60
2017,05,15,01,11,3.20
2017,05,15,01,14,1.60
2017,05,15,01,15,1.60
2017,05,15,01,16,1.60
2017,05,15,01,17,1.60
2017,05,15,01,18,1.60
2017,05,15,01,19,1.60
2017,05,15,01,20,1.60
2017,05,15,01,21,1.60
2017,05,15,01,32,1.60
2017,05,15,01,44,1.60
2017,05,15,01,45,1.60
2017,05,15,01,46,1.60
2017,05,15,01,48,1.60
2017,05,15,01,55,1.60
2017,05,15,01,56,1.60
2017,05,15,01,57,1.60
2017,05,15,01,58,1.60
2017,05,15,02,10,1.60
2017,05,15,02,11,3.20
2017,05,15,02,12,3.20
2017,05,15,02,13,1.60
2017,05,15,02,14,1.60
2017,05,15,02,15,1.60
2017,05,15,02,16,1.60
2017,05,15,02,17,1.60
2017,05,15,02,18,3.20
2017,05,15,02,19,1.60
2017,05,15,02,22,1.60
2017,05,15,02,23,1.60
2017,05,15,02,24,1.60
2017,05,15,02,25,3.20
2017,05,15,02,26,3.20
2017,05,15,02,27,1.60
2017,05,15,02,28,1.60
2017,05,15,02,29,1.60
2017,05,15,02,30,1.60
2017,05,15,02,31,3.20
2017,05,15,02,32,1.60
2017,05,15,02,33,1.60
2017,05,15,02,34,1.60
2017,05,15,02,37,1.60
2017,05,15,02,38,3.20
2017,05,15,02,39,3.20
2017,05,15,02,40,3.20
2017,05,15,02,41,3.20
2017,05,15,02,42,1.60
2017,05,15,02,43,3.20
2017,05,15,02,44,1.60
2017,05,15,02,45,3.20
2017,05,15,02,46,3.20
2017,05,15,02,47,1.60
2017,05,15,02,49,1.60
2017,05,15,02,50,1.60
2017,05,15,02,51,1.60
2017,05,15,02,52,1.60
2017,05,15,02,53,1.60
2017,05,15,02,58,3.20
2017,05,15,02,59,3.20
2017,05,15,03,00,3.20
2017,05,15,03,01,1.60
2017,05,15,03,09,1.60
2017,05,15,03,10,1.60
2017,05,15,03,11,1.60
2017,05,15,03,12,3.20
2017,05,15,03,13,1.60
2017,05,15,03,14,1.60
2017,05,15,03,15,1.60
2017,05,15,03,16,3.20
2017,05,15,03,17,1.60
2017,05,15,03,18,3.20
2017,05,15,03,19,3.20
2017,05,15,03,20,3.20
2017,05,15,03,21,1.60
2017,05,15,03,22,1.60
2017,05,15,03,23,1.60
2017,05,15,03,26,1.60
2017,05,15,03,27,1.60
2017,05,15,03,28,1.60
2017,05,15,03,29,1.60
2017,05,15,03,37,1.60
2017,05,15,03,41,1.60
2017,05,15,03,55,3.20
2017,05,15,03,56,3.20
2017,05,15,03,57,3.20
2017,05,15,03,58,3.20
2017,05,15,03,59,1.60
2017,05,15,04,00,3.20
2017,05,15,04,01,1.60
2017,05,15,04,02,1.60
2017,05,15,04,03,1.60
2017,05,15,04,04,1.60
2017,05,15,04,05,1.60
2017,05,15,04,06,3.20
2017,05,15,04,07,1.60
2017,05,15,04,08,1.60
2017,05,15,04,09,1.60
2017,05,15,04,10,1.60
2017,05,15,04,11,1.60
2017,05,15,04,12,1.60
2017,05,15,04,16,1.60
2017,05,15,04,17,1.60
2017,05,15,04,18,1.60
2017,05,15,04,19,3.20
2017,05,15,04,20,3.20
2017,05,15,04,21,3.20
2017,05,15,04,22,1.60
2017,05,15,04,23,1.60
2017,05,15,04,24,1.60
2017,05,15,04,27,1.60
2017,05,15,04,28,1.60
2017,05,15,04,29,1.60
2017,05,15,04,31,3.20
2017,05,15,04,32,3.20
2017,05,15,04,33,3.20
2017,05,15,04,34,3.20
2017,05,15,04,35,1.60
2017,05,15,04,39,1.60
2017,05,15,04,40,3.20
2017,05,15,04,41,1.60
2017,05,15,04,59,1.60
2017,05,15,05,00,1.60
2017,05,15,05,01,1.60
2017,05,15,05,02,1.60
2017,05,15,05,18,1.60
2017,05,15,05,19,1.60
2017,05,15,05,20,3.20
2017,05,15,05,21,1.60
2017,05,15,05,39,1.60
2017,05,15,05,40,1.60
2017,05,15,05,43,1.60
2017,05,15,05,44,1.60
2017,05,15,05,48,1.60
2017,05,15,05,49,3.20
2017,05,15,05,50,3.20
2017,05,15,05,51,3.20
2017,05,15,05,52,3.20
2017,05,15,05,53,1.60
2017,05,15,05,54,3.20
2017,05,15,05,55,3.20
2017,05,15,05,56,3.20
2017,05,15,05,57,3.20
2017,05,15,05,58,3.20
2017,05,15,05,59,1.60
2017,05,15,06,05,1.60
2017,05,15,06,06,1.60
2017,05,15,06,07,1.60
2017,05,15,06,08,1.60
2017,05,15,06,09,1.60
2017,05,15,06,14,1.60
2017,05,15,06,15,1.60
2017,05,15,06,16,6.40
2017,05,15,06,17,4.80
2017,05,15,06,19,1.60
2017,05,15,06,21,1.60
2017,05,15,06,22,1.60
2017,05,15,06,23,1.60
2017,05,15,06,24,1.60
2017,05,15,06,25,3.20
2017,05,15,06,26,3.20
2017,05,15,06,29,3.20
2017,05,15,06,30,4.80
2017,05,15,06,31,3.20
2017,05,15,06,32,4.80
2017,05,15,06,33,3.20
2017,05,15,06,34,3.20
2017,05,15,06,35,1.60
2017,05,15,06,36,1.60
2017,05,15,06,37,3.20
2017,05,15,06,38,3.20
2017,05,15,06,39,6.40
2017,05,15,06,40,8.10
2017,05,15,06,41,4.80
2017,05,15,06,42,3.20
2017,05,15,06,43,9.60
2017,05,15,06,44,4.80
2017,05,15,06,45,3.20
2017,05,15,06,46,6.40
2017,05,15,06,47,4.80
2017,05,15,06,48,4.80
2017,05,15,06,49,6.40
2017,05,15,06,50,3.20
2017,05,15,06,51,8.10
2017,05,15,06,52,4.80
2017,05,15,06,53,11.30
2017,05,15,06,54,8.10
2017,05,15,06,55,8.10
2017,05,15,06,56,9.60
2017,05,15,06,57,11.30
2017,05,15,06,58,16.10
2017,05,15,06,59,6.40
2017,05,15,07,00,4.80
2017,05,15,07,01,3.20
2017,05,15,07,02,3.20
2017,05,15,07,03,3.20
2017,05,15,07,04,6.40
2017,05,15,07,05,6.40
2017,05,15,07,06,3.20
2017,05,15,07,07,1.60
2017,05,15,07,08,11.30
2017,05,15,07,09,9.60
2017,05,15,07,10,4.80
2017,05,15,07,11,1.60
2017,05,15,07,12,3.20
2017,05,15,07,13,3.20
2017,05,15,07,14,3.20
2017,05,15,07,15,3.20
2017,05,15,07,16,1.60
2017,05,15,07,17,4.80
2017,05,15,07,18,3.20
2017,05,15,07,19,6.40
2017,05,15,07,20,6.40
2017,05,15,07,21,9.60
2017,05,15,07,22,6.40
2017,05,15,07,23,6.40
2017,05,15,07,24,4.80
2017,05,15,07,25,6.40
2017,05,15,07,26,8.10
2017,05,15,07,27,8.10
2017,05,15,07,28,8.10
2017,05,15,07,29,9.60
2017,05,15,07,30,9.60
2017,05,15,07,31,11.30
2017,05,15,07,32,3.20
2017,05,15,07,33,12.90
2017,05,15,07,34,8.10
2017,05,15,07,35,6.40
2017,05,15,07,36,8.10
2017,05,15,07,37,4.80
2017,05,15,07,38,4.80
2017,05,15,07,39,4.80
2017,05,15,07,40,8.10
2017,05,15,07,41,8.10
2017,05,15,07,42,3.20
2017,05,15,07,43,6.40
2017,05,15,07,44,1.60
2017,05,15,07,45,1.60
2017,05,15,07,46,6.40
2017,05,15,07,47,6.40
2017,05,15,07,48,3.20
2017,05,15,07,49,6.40
2017,05,15,07,50,8.10
2017,05,15,07,51,11.30
2017,05,15,07,52,6.40
2017,05,15,07,53,1.60
2017,05,15,07,54,4.80
2017,05,15,07,55,14.50
2017,05,15,07,56,12.90
2017,05,15,07,57,8.10
2017,05,15,07,58,8.10
2017,05,15,07,59,6.40
2017,05,15,08,00,9.60
2017,05,15,08,01,8.10
2017,05,15,08,02,3.20
2017,05,15,08,03,11.30
2017,05,15,08,04,8.10
2017,05,15,08,05,6.40
2017,05,15,08,06,4.80
2017,05,15,08,07,4.80
2017,05,15,08,08,6.40
2017,05,15,08,09,14.50
2017,05,15,08,10,16.10
2017,05,15,08,11,8.10
2017,05,15,08,12,3.20
2017,05,15,08,13,8.10
2017,05,15,08,14,6.40
2017,05,15,08,15,11.30
2017,05,15,08,16,16.10
2017,05,15,08,17,11.30
2017,05,15,08,18,9.60
2017,05,15,08,19,12.90
2017,05,15,08,20,9.60
2017,05,15,08,21,14.50
2017,05,15,08,22,9.60
2017,05,15,08,23,14.50
2017,05,15,08,24,11.30
2017,05,15,08,25,9.60
2017,05,15,08,26,9.60
2017,05,15,08,27,6.40
2017,05,15,08,28,8.10
2017,05,15,08,29,6.40
2017,05,15,08,30,6.40
2017,05,15,08,31,8.10
2017,05,15,08,32,1.60
2017,05,15,08,33,6.40
2017,05,15,08,34,3.20
2017,05,15,08,35,4.80
2017,05,15,08,36,3.20
2017,05,15,08,37,6.40
2017,05,15,08,38,8.10
2017,05,15,08,39,9.60
2017,05,15,08,40,4.80
2017,05,15,08,41,6.40
2017,05,15,08,42,6.40
2017,05,15,08,43,4.80
2017,05,15,08,44,6.40
2017,05,15,08,45,8.10
2017,05,15,08,46,6.40
2017,05,15,08,47,12.90
2017,05,15,08,48,9.60
2017,05,15,08,49,6.40
2017,05,15,08,50,4.80
2017,05,15,08,51,3.20
2017,05,15,08,52,6.40
2017,05,15,08,53,11.30
2017,05,15,08,54,11.30
2017,05,15,08,55,11.30
2017,05,15,08,56,11.30
2017,05,15,08,57,6.40
2017,05,15,08,58,6.40
2017,05,15,08,59,9.60
2017,05,15,09,00,8.10
2017,05,15,09,01,6.40
2017,05,15,09,02,8.10
2017,05,15,09,03,16.10
2017,05,15,09,04,14.50
2017,05,15,09,05,9.60
2017,05,15,09,06,11.30
2017,05,15,09,07,12.90
2017,05,15,09,08,11.30
2017,05,15,09,09,12.90
2017,05,15,09,10,12.90
2017,05,15,09,11,12.90
2017,05,15,09,12,17.70
2017,05,15,09,13,12.90
2017,05,15,09,14,8.10
2017,05,15,09,15,11.30
2017,05,15,09,16,8.10
2017,05,15,09,17,11.30
2017,05,15,09,18,12.90
2017,05,15,09,19,11.30
2017,05,15,09,20,9.60
2017,05,15,09,21,8.10
2017,05,15,09,22,9.60
2017,05,15,09,23,9.60
2017,05,15,09,24,6.40
2017,05,15,09,25,12.90
2017,05,15,09,26,3.20
2017,05,15,09,27,6.40
2017,05,15,09,28,6.40
2017,05,15,09,29,6.40
2017,05,15,09,30,11.30
2017,05,15,09,31,16.10
2017,05,15,09,32,12.90
2017,05,15,09,33,17.70
2017,05,15,09,34,11.30
2017,05,15,09,35,8.10
2017,05,15,09,36,11.30
2017,05,15,09,37,16.10
2017,05,15,09,38,14.50
2017,05,15,09,39,8.10
2017,05,15,09,40,9.60
2017,05,15,09,41,9.60
2017,05,15,09,42,4.80
2017,05,15,09,43,8.10
2017,05,15,09,44,6.40
2017,05,15,09,45,6.40
2017,05,15,09,46,8.10
2017,05,15,09,47,11.30
2017,05,15,09,48,9.60
2017,05,15,09,49,9.60
2017,05,15,09,50,14.50
2017,05,15,09,51,12.90
2017,05,15,09,52,8.10
2017,05,15,09,53,6.40
2017,05,15,09,54,11.30
2017,05,15,09,55,9.60
2017,05,15,09,56,14.50
2017,05,15,09,57,8.10
2017,05,15,09,58,6.40
2017,05,15,09,59,6.40
2017,05,15,10,00,11.30
2017,05,15,10,01,4.80
2017,05,15,10,02,6.40
2017,05,15,10,03,4.80
2017,05,15,10,04,4.80
2017,05,15,10,05,6.40
2017,05,15,10,06,9.60
2017,05,15,10,07,9.60
2017,05,15,10,08,8.10
2017,05,15,10,09,9.60
2017,05,15,10,10,4.80
2017,05,15,10,11,6.40
2017,05,15,10,12,4.80
2017,05,15,10,13,9.60
2017,05,15,10,14,16.10
2017,05,15,10,15,12.90
2017,05,15,10,16,8.10
2017,05,15,10,17,3.20
2017,05,15,10,18,6.40
2017,05,15,10,19,12.90
2017,05,15,10,20,11.30
2017,05,15,10,21,6.40
2017,05,15,10,22,9.60
2017,05,15,10,23,9.60
2017,05,15,10,24,9.60
2017,05,15,10,25,9.60
2017,05,15,10,26,6.40
2017,05,15,10,27,17.70
2017,05,15,10,28,6.40
2017,05,15,10,29,8.10
2017,05,15,10,30,24.20
2017,05,15,10,31,12.90
2017,05,15,10,32,4.80
2017,05,15,10,33,9.60
2017,05,15,10,34,19.30
2017,05,15,10,35,6.40
2017,05,15,10,36,14.50
2017,05,15,10,37,14.50
2017,05,15,10,38,16.10
2017,05,15,10,39,22.50
2017,05,15,10,40,20.90
2017,05,15,10,41,16.10
2017,05,15,10,42,14.50
2017,05,15,10,43,11.30
2017,05,15,10,44,16.10
2017,05,15,10,45,12.90
2017,05,15,10,46,14.50
2017,05,15,10,47,19.30
2017,05,15,10,48,16.10
2017,05,15,10,49,24.20
2017,05,15,10,50,16.10
2017,05,15,10,51,16.10
2017,05,15,10,52,16.10
2017,05,15,10,53,19.30
2017,05,15,10,54,11.30
2017,05,15,10,55,19.30
2017,05,15,10,56,16.10
2017,05,15,10,57,29.00
2017,05,15,10,58,30.60
2017,05,15,10,59,22.50
2017,05,15,11,00,19.30
2017,05,15,11,01,12.90
2017,05,15,11,02,20.90
2017,05,15,11,03,20.90
2017,05,15,11,04,25.70
2017,05,15,11,05,24.20
2017,05,15,11,06,14.50
2017,05,15,11,07,22.50
2017,05,15,11,08,37.00
2017,05,15,11,09,38.60
2017,05,15,11,10,11.30
2017,05,15,11,11,19.30
2017,05,15,11,12,11.30
2017,05,15,11,13,14.50
2017,05,15,11,14,14.50
2017,05,15,11,15,30.60
2017,05,15,11,16,38.60
2017,05,15,11,17,22.50
2017,05,15,11,18,24.20
2017,05,15,11,19,29.00
2017,05,15,11,20,30.60
2017,05,15,11,21,25.70
2017,05,15,11,22,20.90
2017,05,15,11,23,25.70
2017,05,15,11,24,19.30
2017,05,15,11,25,24.20
2017,05,15,11,26,22.50
2017,05,15,11,27,22.50
2017,05,15,11,28,16.10
2017,05,15,11,29,9.60
2017,05,15,11,30,16.10
2017,05,15,11,31,14.50
2017,05,15,11,32,14.50
2017,05,15,11,33,12.90
2017,05,15,11,34,9.60
2017,05,15,11,35,11.30
2017,05,15,11,36,19.30
2017,05,15,11,37,16.10
2017,05,15,11,38,37.00
2017,05,15,11,39,22.50
2017,05,15,11,40,22.50
2017,05,15,11,41,32.20
2017,05,15,11,42,22.50
2017,05,15,11,43,17.70
2017,05,15,11,44,30.60
2017,05,15,11,45,22.50
2017,05,15,11,46,32.20
2017,05,15,11,47,27.40
2017,05,15,11,48,30.60
2017,05,15,11,49,17.70
2017,05,15,11,50,16.10
2017,05,15,11,51,20.90
2017,05,15,11,52,14.50
2017,05,15,11,53,11.30
2017,05,15,11,54,14.50
2017,05,15,11,55,22.50
2017,05,15,11,56,33.80
2017,05,15,11,57,17.70
2017,05,15,11,58,17.70
2017,05,15,11,59,19.30
2017,05,15,12,00,17.70
2017,05,15,12,01,17.70
2017,05,15,12,02,30.60
2017,05,15,12,03,33.80
2017,05,15,12,04,25.70
2017,05,15,12,05,29.00
2017,05,15,12,06,17.70
2017,05,15,12,07,19.30
2017,05,15,12,08,33.80
2017,05,15,12,09,19.30
2017,05,15,12,10,32.20
2017,05,15,12,11,20.90
2017,05,15,12,12,25.70
2017,05,15,12,13,27.40
2017,05,15,12,14,25.70
2017,05,15,12,15,33.80
2017,05,15,12,16,20.90
2017,05,15,12,17,14.50
2017,05,15,12,18,24.20
2017,05,15,12,19,17.70
2017,05,15,12,20,14.50
2017,05,15,12,21,32.20
2017,05,15,12,22,20.90
2017,05,15,12,23,27.40
2017,05,15,12,24,22.50
2017,05,15,12,25,8.10
2017,05,15,12,26,16.10
2017,05,15,12,27,16.10
2017,05,15,12,28,29.00
2017,05,15,12,29,33.80
2017,05,15,12,30,27.40
2017,05,15,12,31,17.70
2017,05,15,12,32,12.90
2017,05,15,12,33,24.20
2017,05,15,12,34,24.20
2017,05,15,12,35,25.70
2017,05,15,12,36,19.30
2017,05,15,12,37,16.10
2017,05,15,12,38,17.70
2017,05,15,12,39,16.10
2017,05,15,12,40,16.10
2017,05,15,12,41,16.10
2017,05,15,12,42,22.50
2017,05,15,12,43,19.30
2017,05,15,12,44,30.60
2017,05,15,12,45,16.10
2017,05,15,12,46,16.10
2017,05,15,12,47,29.00
2017,05,15,12,48,17.70
2017,05,15,12,49,19.30
2017,05,15,12,50,33.80
2017,05,15,12,51,27.40
2017,05,15,12,52,25.70
2017,05,15,12,53,22.50
2017,05,15,12,54,32.20
2017,05,15,12,55,29.00
2017,05,15,12,56,20.90
2017,05,15,12,57,19.30
2017,05,15,12,58,29.00
2017,05,15,12,59,25.70
2017,05,15,13,00,16.10
2017,05,15,13,01,17.70
2017,05,15,13,02,16.10
2017,05,15,13,03,20.90
2017,05,15,13,04,22.50
2017,05,15,13,05,17.70
2017,05,15,13,06,16.10
2017,05,15,13,07,22.50
2017,05,15,13,08,20.90
2017,05,15,13,09,22.50
2017,05,15,13,10,25.70
2017,05,15,13,11,20.90
2017,05,15,13,12,29.00
2017,05,15,13,13,22.50
2017,05,15,13,14,14.50
2017,05,15,13,15,32.20
2017,05,15,13,16,22.50
2017,05,15,13,17,24.20
2017,05,15,13,18,12.90
2017,05,15,13,19,20.90
2017,05,15,13,20,17.70
2017,05,15,13,21,16.10
2017,05,15,13,22,16.10
2017,05,15,13,23,19.30
2017,05,15,13,24,12.90
2017,05,15,13,25,12.90
2017,05,15,13,26,22.50
2017,05,15,13,27,22.50
2017,05,15,13,28,24.20
2017,05,15,13,29,20.90
2017,05,15,13,30,16.10
2017,05,15,13,31,14.50
2017,05,15,13,32,17.70
2017,05,15,13,33,17.70
2017,05,15,13,34,19.30
2017,05,15,13,35,25.70
2017,05,15,13,36,17.70
2017,05,15,13,37,19.30
2017,05,15,13,38,22.50
2017,05,15,13,39,17.70
2017,05,15,13,40,27.40
2017,05,15,13,41,19.30
2017,05,15,13,42,12.90
2017,05,15,13,43,11.30
2017,05,15,13,44,22.50
2017,05,15,13,45,22.50
2017,05,15,13,46,11.30
2017,05,15,13,47,8.10
2017,05,15,13,48,9.60
2017,05,15,13,49,17.70
2017,05,15,13,50,38.60
2017,05,15,13,51,12.90
2017,05,15,13,52,11.30
2017,05,15,13,53,11.30
2017,05,15,13,54,16.10
2017,05,15,13,55,14.50
2017,05,15,13,56,16.10
2017,05,15,13,57,17.70
2017,05,15,13,58,12.90
2017,05,15,13,59,24.20
2017,05,15,14,00,16.10
2017,05,15,14,01,16.10
2017,05,15,14,02,16.10
2017,05,15,14,03,22.50
2017,05,15,14,04,20.90
2017,05,15,14,05,25.70
2017,05,15,14,06,27.40
2017,05,15,14,07,12.90
2017,05,15,14,08,19.30
2017,05,15,14,09,24.20
2017,05,15,14,10,14.50
2017,05,15,14,11,16.10
2017,05,15,14,12,16.10
2017,05,15,14,13,17.70
2017,05,15,14,14,17.70
2017,05,15,14,15,24.20
2017,05,15,14,16,12.90
2017,05,15,14,17,19.30
2017,05,15,14,18,19.30
2017,05,15,14,19,22.50
2017,05,15,14,20,27.40
2017,05,15,14,21,14.50
2017,05,15,14,22,20.90
2017,05,15,14,23,32.20
2017,05,15,14,24,24.20
2017,05,15,14,25,19.30
2017,05,15,14,26,22.50
2017,05,15,14,27,20.90
2017,05,15,14,28,19.30
2017,05,15,14,29,12.90
2017,05,15,14,30,8.10
2017,05,15,14,31,8.10
2017,05,15,14,32,12.90
2017,05,15,14,33,12.90
2017,05,15,14,34,12.90
2017,05,15,14,35,12.90
2017,05,15,14,36,12.90
2017,05,15,14,37,19.30
2017,05,15,14,38,11.30
2017,05,15,14,39,12.90
2017,05,15,14,40,19.30
2017,05,15,14,41,19.30
2017,05,15,14,42,25.70
2017,05,15,14,43,17.70
2017,05,15,14,44,19.30
2017,05,15,14,45,12.90
2017,05,15,14,46,19.30
2017,05,15,14,47,17.70
2017,05,15,14,48,11.30
2017,05,15,14,49,12.90
2017,05,15,14,50,27.40
2017,05,15,14,51,17.70
2017,05,15,14,52,17.70
2017,05,15,14,53,33.80
2017,05,15,14,54,17.70
2017,05,15,14,55,19.30
2017,05,15,14,56,22.50
2017,05,15,14,57,12.90
2017,05,15,14,58,22.50
2017,05,15,14,59,14.50
2017,05,15,15,00,19.30
2017,05,15,15,01,24.20
2017,05,15,15,02,12.90
2017,05,15,15,03,27.40
2017,05,15,15,04,12.90
2017,05,15,15,05,12.90
2017,05,15,15,06,32.20
2017,05,15,15,07,20.90
2017,05,15,15,08,17.70
2017,05,15,15,09,14.50
2017,05,15,15,10,8.10
2017,05,15,15,11,9.60
2017,05,15,15,12,8.10
2017,05,15,15,13,14.50
2017,05,15,15,14,22.50
2017,05,15,15,15,32.20
2017,05,15,15,16,30.60
2017,05,15,15,17,16.10
2017,05,15,15,18,6.40
2017,05,15,15,19,30.60
2017,05,15,15,20,14.50
2017,05,15,15,21,20.90
2017,05,15,15,22,17.70
2017,05,15,15,23,12.90
2017,05,15,15,24,17.70
2017,05,15,15,25,17.70
2017,05,15,15,26,17.70
2017,05,15,15,27,29.00
2017,05,15,15,28,16.10
2017,05,15,15,29,29.00
2017,05,15,15,30,35.40
2017,05,15,15,31,19.30
2017,05,15,15,32,19.30
2017,05,15,15,33,33.80
2017,05,15,15,34,17.70
2017,05,15,15,35,22.50
2017,05,15,15,36,16.10
2017,05,15,15,37,22.50
2017,05,15,15,38,27.40
2017,05,15,15,39,20.90
2017,05,15,15,40,41.80
2017,05,15,15,41,24.20
2017,05,15,15,42,22.50
2017,05,15,15,43,19.30
2017,05,15,15,44,12.90
2017,05,15,15,45,22.50
2017,05,15,15,46,20.90
2017,05,15,15,47,25.70
2017,05,15,15,48,24.20
2017,05,15,15,49,24.20
2017,05,15,15,50,17.70
2017,05,15,15,51,30.60
2017,05,15,15,52,25.70
2017,05,15,15,53,33.80
2017,05,15,15,54,14.50
2017,05,15,15,55,19.30
2017,05,15,15,56,16.10
2017,05,15,15,57,22.50
2017,05,15,15,58,16.10
2017,05,15,15,59,12.90
2017,05,15,16,00,19.30
2017,05,15,16,01,11.30
2017,05,15,16,02,24.20
2017,05,15,16,03,20.90
2017,05,15,16,04,19.30
2017,05,15,16,05,16.10
2017,05,15,16,06,17.70
2017,05,15,16,07,24.20
2017,05,15,16,08,24.20
2017,05,15,16,09,22.50
2017,05,15,16,10,16.10
2017,05,15,16,11,19.30
2017,05,15,16,12,17.70
2017,05,15,16,13,16.10
2017,05,15,16,14,33.80
2017,05,15,16,15,20.90
2017,05,15,16,16,20.90
2017,05,15,16,17,24.20
2017,05,15,16,18,19.30
2017,05,15,16,19,24.20
2017,05,15,16,20,25.70
2017,05,15,16,21,32.20
2017,05,15,16,22,25.70
2017,05,15,16,23,25.70
2017,05,15,16,24,24.20
2017,05,15,16,25,19.30
2017,05,15,16,26,29.00
2017,05,15,16,27,20.90
2017,05,15,16,28,17.70
2017,05,15,16,29,24.20
2017,05,15,16,30,37.00
2017,05,15,16,31,11.30
2017,05,15,16,32,17.70
2017,05,15,16,33,20.90
2017,05,15,16,34,20.90
2017,05,15,16,35,12.90
2017,05,15,16,36,16.10
2017,05,15,16,37,40.20
2017,05,15,16,38,22.50
2017,05,15,16,39,27.40
2017,05,15,16,40,37.00
2017,05,15,16,41,20.90
2017,05,15,16,42,17.70
2017,05,15,16,43,27.40
2017,05,15,16,44,19.30
2017,05,15,16,45,24.20
2017,05,15,16,46,22.50
2017,05,15,16,47,29.00
2017,05,15,16,48,25.70
2017,05,15,16,49,19.30
2017,05,15,16,50,19.30
2017,05,15,16,51,12.90
2017,05,15,16,52,12.90
2017,05,15,16,53,32.20
2017,05,15,16,54,27.40
2017,05,15,16,55,11.30
2017,05,15,16,56,24.20
2017,05,15,16,57,16.10
2017,05,15,16,58,17.70
2017,05,15,16,59,30.60
2017,05,15,17,00,27.40
2017,05,15,17,01,20.90
2017,05,15,17,02,11.30
2017,05,15,17,03,17.70
2017,05,15,17,04,16.10
2017,05,15,17,05,12.90
2017,05,15,17,06,19.30
2017,05,15,17,07,49.90
2017,05,15,17,08,16.10
2017,05,15,17,09,30.60
2017,05,15,17,10,16.10
2017,05,15,17,11,32.20
2017,05,15,17,12,19.30
2017,05,15,17,13,24.20
2017,05,15,17,14,20.90
2017,05,15,17,15,25.70
2017,05,15,17,16,14.50
2017,05,15,17,17,17.70
2017,05,15,17,18,14.50
2017,05,15,17,19,24.20
2017,05,15,17,20,19.30
2017,05,15,17,21,27.40
2017,05,15,17,22,30.60
2017,05,15,17,23,19.30
2017,05,15,17,24,17.70
2017,05,15,17,25,20.90
2017,05,15,17,26,25.70
2017,05,15,17,27,43.50
2017,05,15,17,28,33.80
2017,05,15,17,29,9.60
2017,05,15,17,30,22.50
2017,05,15,17,31,17.70
2017,05,15,17,32,14.50
2017,05,15,17,33,27.40
2017,05,15,17,34,29.00
2017,05,15,17,35,24.20
2017,05,15,17,36,19.30
2017,05,15,17,37,43.50
2017,05,15,17,38,29.00
2017,05,15,17,39,24.20
2017,05,15,17,40,29.00
2017,05,15,17,41,11.30
2017,05,15,17,42,11.30
2017,05,15,17,43,19.30
2017,05,15,17,44,27.40
2017,05,15,17,45,22.50
2017,05,15,17,46,20.90
2017,05,15,17,47,22.50
2017,05,15,17,48,37.00
2017,05,15,17,49,32.20
2017,05,15,17,50,24.20
2017,05,15,17,51,17.70
2017,05,15,17,52,22.50
2017,05,15,17,53,30.60
2017,05,15,17,54,33.80
2017,05,15,17,55,27.40
2017,05,15,17,56,24.20
2017,05,15,17,57,17.70
2017,05,15,17,58,25.70
2017,05,15,17,59,24.20
2017,05,15,18,00,29.00
2017,05,15,18,01,24.20
2017,05,15,18,02,16.10
2017,05,15,18,03,27.40
2017,05,15,18,04,41.80
2017,05,15,18,05,38.60
2017,05,15,18,06,25.70
2017,05,15,18,07,14.50
2017,05,15,18,08,14.50
2017,05,15,18,09,9.60
2017,05,15,18,10,19.30
2017,05,15,18,11,19.30
2017,05,15,18,12,16.10
2017,05,15,18,13,24.20
2017,05,15,18,14,24.20
2017,05,15,18,15,19.30
2017,05,15,18,16,22.50
2017,05,15,18,17,17.70
2017,05,15,18,18,11.30
2017,05,15,18,19,25.70
2017,05,15,18,20,9.60
2017,05,15,18,21,20.90
2017,05,15,18,22,33.80
2017,05,15,18,23,16.10
2017,05,15,18,24,16.10
2017,05,15,18,25,20.90
2017,05,15,18,26,17.70
2017,05,15,18,27,20.90
2017,05,15,18,28,16.10
2017,05,15,18,29,16.10
2017,05,15,18,30,8.10
2017,05,15,18,31,16.10
2017,05,15,18,32,16.10
2017,05,15,18,33,8.10
2017,05,15,18,34,20.90
2017,05,15,18,35,14.50
2017,05,15,18,36,6.40
2017,05,15,18,37,16.10
2017,05,15,18,38,16.10
2017,05,15,18,39,19.30
2017,05,15,18,40,16.10
2017,05,15,18,41,17.70
2017,05,15,18,42,16.10
2017,05,15,18,43,27.40
2017,05,15,18,44,22.50
2017,05,15,18,45,22.50
2017,05,15,18,46,24.20
2017,05,15,18,47,30.60
2017,05,15,18,48,14.50
2017,05,15,18,49,24.20
2017,05,15,18,50,17.70
2017,05,15,18,51,16.10
2017,05,15,18,52,46.70
2017,05,15,18,53,32.20
2017,05,15,18,54,24.20
2017,05,15,18,55,20.90
2017,05,15,18,56,19.30
2017,05,15,18,57,16.10
2017,05,15,18,58,20.90
2017,05,15,18,59,25.70
2017,05,15,19,00,25.70
2017,05,15,19,01,20.90
2017,05,15,19,02,16.10
2017,05,15,19,03,24.20
2017,05,15,19,04,20.90
2017,05,15,19,05,16.10
2017,05,15,19,06,11.30
2017,05,15,19,07,22.50
2017,05,15,19,08,14.50
2017,05,15,19,09,17.70
2017,05,15,19,10,17.70
2017,05,15,19,11,17.70
2017,05,15,19,12,30.60
2017,05,15,19,13,32.20
2017,05,15,19,14,20.90
2017,05,15,19,15,25.70
2017,05,15,19,16,17.70
2017,05,15,19,17,16.10
2017,05,15,19,18,16.10
2017,05,15,19,19,22.50
2017,05,15,19,20,16.10
2017,05,15,19,21,11.30
2017,05,15,19,22,19.30
2017,05,15,19,23,33.80
2017,05,15,19,24,37.00
2017,05,15,19,25,20.90
2017,05,15,19,26,25.70
2017,05,15,19,27,22.50
2017,05,15,19,28,25.70
2017,05,15,19,29,12.90
2017,05,15,19,30,16.10
2017,05,15,19,31,24.20
2017,05,15,19,32,9.60
2017,05,15,19,33,20.90
2017,05,15,19,34,22.50
2017,05,15,19,35,27.40
2017,05,15,19,36,19.30
2017,05,15,19,37,16.10
2017,05,15,19,38,19.30
2017,05,15,19,39,11.30
2017,05,15,19,40,16.10
2017,05,15,19,41,11.30
2017,05,15,19,42,12.90
2017,05,15,19,43,25.70
2017,05,15,19,44,24.20
2017,05,15,19,45,14.50
2017,05,15,19,46,11.30
2017,05,15,19,47,9.60
2017,05,15,19,48,14.50
2017,05,15,19,49,14.50
2017,05,15,19,50,24.20
2017,05,15,19,51,12.90
2017,05,15,19,52,14.50
2017,05,15,19,53,16.10
2017,05,15,19,54,22.50
2017,05,15,19,55,29.00
2017,05,15,19,56,29.00
2017,05,15,19,57,17.70
2017,05,15,19,58,17.70
2017,05,15,19,59,12.90
2017,05,15,20,00,24.20
2017,05,15,20,01,14.50
2017,05,15,20,02,14.50
2017,05,15,20,03,16.10
2017,05,15,20,04,27.40
2017,05,15,20,05,11.30
2017,05,15,20,06,25.70
2017,05,15,20,07,20.90
2017,05,15,20,08,16.10
2017,05,15,20,09,19.30
2017,05,15,20,10,17.70
2017,05,15,20,11,19.30
2017,05,15,20,12,8.10
2017,05,15,20,13,22.50
2017,05,15,20,14,14.50
2017,05,15,20,15,20.90
2017,05,15,20,16,19.30
2017,05,15,20,17,22.50
2017,05,15,20,18,11.30
2017,05,15,20,19,12.90
2017,05,15,20,20,16.10
2017,05,15,20,21,24.20
2017,05,15,20,22,9.60
2017,05,15,20,23,17.70
2017,05,15,20,24,27.40
2017,05,15,20,25,14.50
2017,05,15,20,26,27.40
2017,05,15,20,27,25.70
2017,05,15,20,28,16.10
2017,05,15,20,29,27.40
2017,05,15,20,30,25.70
2017,05,15,20,31,16.10
2017,05,15,20,32,11.30
2017,05,15,20,33,9.60
2017,05,15,20,34,24.20
2017,05,15,20,35,20.90
2017,05,15,20,36,19.30
2017,05,15,20,37,22.50
2017,05,15,20,38,19.30
2017,05,15,20,39,8.10
2017,05,15,20,40,14.50
2017,05,15,20,41,19.30
2017,05,15,20,42,19.30
2017,05,15,20,43,22.50
2017,05,15,20,44,8.10
2017,05,15,20,45,11.30
2017,05,15,20,46,16.10
2017,05,15,20,47,14.50
2017,05,15,20,48,22.50
2017,05,15,20,49,16.10
2017,05,15,20,50,14.50
2017,05,15,20,51,17.70
2017,05,15,20,52,8.10
2017,05,15,20,53,11.30
2017,05,15,20,54,17.70
2017,05,15,20,55,25.70
2017,05,15,20,56,20.90
2017,05,15,20,57,11.30
2017,05,15,20,58,12.90